Regional Weather Roundup
Issued by NWS Upton, NY

Current Version | Previous Version | Text Only | Print | Product List | Glossary On
Versions: 1 2 3 4 5 6 7 8 9 10 11 12 13 14 15 16 17 18 19 20 21 22 23 24 25 26 27 28 29 30 31 32 33 34 35 36 37 38 39 40 41 42 43 44 45 46 47 48 49 50
000 ASUS41 KOKX 290305 RWROKX REGIONAL WEATHER ROUNDUP NATIONAL WEATHER SERVICE NEW YORK NY 1000 PM EST WED JAN 28 2015 NOTE: "FAIR" INDICATES FEW OR NO CLOUDS BELOW 12,000 FEET WITH NO SIGNIFICANT WEATHER AND/OR OBSTRUCTIONS TO VISIBILITY. NYZ071-072-176-178-NJZ106-104-290400- NEW YORK CITY METRO AREA CITY SKY/WX TMP DP RH WIND PRES REMARKS CENTRAL PARK CLEAR 28 0 29 VRB3 30.26R LAGUARDIA APRT CLEAR 27 4 37 N7 30.25R WCI 19 KENNEDY INTL CLEAR 25 9 50 N8 30.26R WCI 16 NEWARK/LIBERTY CLEAR 25 2 37 NW8 30.26R WCI 16 BRNX BOT. GARD N/A N/A N/A N/A W2 30.26R TETERBORO CLEAR 25 -1 32 NW8 30.25R WCI 16 $$ NYZ177-179-078>081-290400- LONG ISLAND NEW YORK CITY SKY/WX TMP DP RH WIND PRES REMARKS FARMINGDALE CLEAR 24 5 44 N5 30.24R WCI 18 ISLIP CLEAR 24 4 42 N15 30.21R WCI 11 SHIRLEY CLEAR 24 6 46 N12 30.23R WCI 13 WESTHAMPTON CLEAR 23 6 48 N9 30.23R WCI 13 MONTAUK POINT N/A 26 6 42 N13 30.21R WCI 15 $$ NYZ052-065-067-290400- HUDSON VALLEY CITY SKY/WX TMP DP RH WIND PRES REMARKS WHITE PLAINS CLEAR 20 1 43 NW15 30.21R WCI 6 NEWBURGH CLEAR 16 7 67 CALM 30.25 MONTGOMERY CLEAR 6 0 76 CALM 30.25R POUGHKEEPSIE CLEAR 9 3 77 CALM 30.27R ALBANY CLEAR 11 0 61 N3 30.30R $$ NJZ001-105-106-008-010-013-015-019>022-104-290400- NEW JERSEY CITY SKY/WX TMP DP RH WIND PRES REMARKS NEWARK/LIBERTY CLEAR 25 2 37 NW8 30.26R WCI 16 TETERBORO CLEAR 25 -1 32 NW8 30.25R WCI 16 CALDWELL CLEAR 24 -1 33 NW3 30.27R MORRISTOWN CLEAR 23 3 42 N7 30.26R WCI 15 SOMERVILLE CLEAR 25 2 37 NW8 30.26R WCI 16 SUSSEX CLEAR 22 1 40 CALM 30.25R ANDOVER N/A 20 1 43 VRB3 30.25R TRENTON CLEAR 25 0 33 NW3 30.26R MILLVILLE CLEAR 26 6 42 NW5 30.27S WCI 20 ATLANTIC CITY CLEAR 23 6 48 NW8 30.26R WCI 14 WRIGHTSTOWN CLEAR 21 4 47 NW10 30.24R WCI 10 TOMS RIVER CLEAR 21 3 45 NW5 30.26R WCI 15 BELMAR CLEAR 21 1 42 NW8 30.24R WCI 12 $$ PAZ047>061-062-071-290400- EASTERN PENNSYLVANIA CITY SKY/WX TMP DP RH WIND PRES REMARKS PHILADELPHIA FAIR 29 3 33 N9 30.30R WCI 20 ALLENTOWN CLEAR 24 2 38 NW8 30.28R WCI 15 SCRANTON CLEAR 18 5 57 N7 30.27S WCI 9 $$ CTZ002-004>006-009-010-012-RIZ004-006-007-MAZ004-011-015-290400- SOUTHERN NEW ENGLAND IN CT CITY SKY/WX TMP DP RH WIND PRES REMARKS BRADLEY INTL CLEAR 19 2 47 CALM 30.22R HARTFORD CLEAR 21 4 47 N7 30.24R WCI 12 DANBURY CLEAR 21 -4 33 N3 30.23S WTRBRY/OXFORD CLEAR 18 -2 41 NW14 30.19R WCI 4 BRIDGEPORT CLEAR 22 1 40 N14 30.22S WCI 9 MERIDEN CLEAR 20 1 43 NW8 30.23R WCI 10 NEW HAVEN CLEAR 22 3 44 NW10G21 30.21R WCI 11 CHESTER FAIR 21 5 49 N10G18 30.19R WCI 10 GROTON CLEAR 21 2 43 N10 30.20R WCI 10 WILLIMANTIC CLEAR 19 -2 39 NW5 30.21R WCI 12 IN RI CITY SKY/WX TMP DP RH WIND PRES REMARKS PROVIDENCE CLEAR 20 4 50 NW7 30.19R WCI 11 BLOCK ISLAND CLEAR 25 7 46 N12G18 30.17R WCI 14 WESTERLY CLEAR 13 7 77 CALM 30.20R IN MA CITY SKY/WX TMP DP RH WIND PRES REMARKS BOSTON CLEAR 20 3 48 NW14 30.20R WCI 7 WORCESTER CLEAR 16 -4 41 NW10G18 30.12R WCI 4 WESTFIELD CLEAR 18 1 47 NW10 30.22R WCI 6 PROVINCETOWN CLOUDY 28 19 69 N15G23 30.15R WCI 17 NANTUCKET CLOUDY 26 17 68 NW10 30.15R WCI 16 $$ ANZ330-335-338-340-345-350-353-355-290400- COASTAL MARINE OBSERVATIONS STATION/POSITION TIME SKY/WX TEMP WIND PRES VSBY WAVE AIR SEA DIR/SP/G HT/PER (UTC) (F) (DEG/KT/KT) (MB) (MI) (FT/S) NY HARB ENTRANCE 0300 33 40 340/ 17/ 21 1023.4 3/12 4S FIRE IS NOT AVBL 20S FIRE ISLAND 0200 42 1022.8 6/ 5 23SW MTP 0300 N/A 4/ 4 HUDSON CANYON NOT AVBL EXECUTION ROCKS 0300 27 34 330/ 10/ 14 N/A WESTERN LI SOUND 0300 27 340/ 10/ 14 N/A 1 CENTRAL LI SOUND 0200 26 35 340/ 16/ 19 N/A 2/ 3 EASTERN LI SOUND NOT AVBL ROBBINS REEF 0200 28 330/ 11/ 14 1023.1 $$ >>>>>>>>>>>>>>>>>>>>>>>>>>>> KEY <<<<<<<<<<<<<<<<<<<<<<<<<<< > < > SKY/WX - SKY CONDITION/PRESENT WEATHER < > TMP - TEMPERATURE IN FAHRENHEIT < > DP - DEWPOINT IN FAHRENHEIT < > RH - RELATIVE HUMIDITY IN PERCENT < > WIND - DIRECTION AND SPEED IN MPH < > PRES - MEAN SEA LEVEL PRESSURE IN INCHES OF HG < > WCI - WIND CHILL INDEX < > VSB - VISIBILITY IN MILES < > HX - HEAT INDEX < > TC - TEMPERATURE IN CELSIUS < > VRB - VARIABLE WIND DIRECTION < > < >>>>>>>>>>>>>>>>>>>>>>>>>>>> KEY <<<<<<<<<<<<<<<<<<<<<<<<<<<

USA.gov is the U.S. government's official web portal to all federal, state and local government web resources and services.